Regional Weather Roundup
Issued by NWS

Home | Current Version | Previous Version | Graphics & Text | Print | Product List | Glossary On
Versions: 1 2 3 4 5 6 7 8 9 10 11 12 13 14 15 16 17 18 19 20 21 22 23 24 25 26 27 28 29 30 31 32 33 34 35 36 37 38 39 40 41 42 43 44 45 46 47 48 49 50
000
ASUS43 KLMK 300310
RWRKY
KENTUCKY REGIONAL WEATHER ROUNDUP
NATIONAL WEATHER SERVICE LOUISVILLE KY
1100 PM EDT MON MAY 29 2017

NOTE "FAIR" INDICATES FEW OR NO CLOUDS BELOW 12,000 FEET
WITH NO SIGNIFICANT WEATHER AND/OR OBSTRUCTIONS TO VISIBILITY.

KYZ001>023-026-027-061>063-070>075-300400-
WESTERN AND SOUTH CENTRAL KENTUCKY

CITY           SKY/WX    TMP DP  RH WIND       PRES   REMARKS
PADUCAH        PTCLDY    74  56  53 SW6       29.96R
HENDERSON      TSTM      64  61  90 SW7       30.01R
OWENSBORO      CLOUDY    71  61  70 S5        29.97R
HOPKINSVILLE   CLEAR     71  64  78 S5        29.99R
BOWLING GREEN  CLOUDY    72  63  73 S8        30.00R
GLASGOW        CLOUDY    69  61  76 CALM      30.00S
$$

KYZ024-025-028>034-038-045-046-053-300400-
NORTH CENTRAL KENTUCKY

CITY           SKY/WX    TMP DP  RH WIND       PRES   REMARKS
LOUISVILLE/SDF MOCLDY    75  57  53 S7        29.95R
LOUISVILLE/LOU CLEAR     74  60  61 SE3       29.96R
FORT KNOX      CLEAR     67  59  74 SW5       29.96R
$$

KYZ035>037-039>044-047>052-055>060-089>105-300400-
NORTHEAST KENTUCKY

CITY           SKY/WX    TMP DP  RH WIND       PRES   REMARKS
LEXINGTON      MOCLDY    70  61  73 S9        30.00R
COVINGTON      PTCLDY    67  55  65 S9        29.94S
FRANKFORT      PTCLDY    69  57  65 S7        29.97R
$$

KYZ054-064>069-076>088-106>120-300400-
SOUTHEAST KENTUCKY

CITY           SKY/WX    TMP DP  RH WIND       PRES   REMARKS
JACKSON        CLOUDY    68  60  75 CALM      30.03R
LONDON         MOCLDY    66  62  87 CALM      30.04R
SOMERSET       MOCLDY    63  63 100 CALM      30.05R
MIDDLESBORO    MOCLDY    66  64  92 CALM      30.06R
MONTICELLO     PTCLDY    64  63  96 W10       30.06R
$$





USA.gov is the U.S. government's official web portal to all federal, state and local government web resources and services.